Vorticity
nan nan nan nan nan nan nan nan nan nan nan nan nan nan nan nan nan nan nan nan nan nan nan nan nan nan nan nan nan nan nan nan nan nan nan nan nan nan nan nan nan nan nan
nan 9 8 7 9 9 7 7 10 7 6 8 11 11 8 10 10 8 9 9 8 8 9 7 9 9 10 10 8 8 6 10 12 10 8 6 9 11 9 7 7 8 nan
nan 11 11 10 5 7 10 9 8 7 7 10 6 6 9 10 10 9 10 9 9 9 9 10 8 9 7 6 8 8 9 13 10 4 11 10 9 13 13 12 10 8 nan
nan 11 12 12 11 8 9 10 10 8 7 7 8 11 10 8 11 10 9 7 9 9 8 9 9 13 13 11 7 10 9 6 10 12 8 9 9 10 9 9 11 10 nan
nan 11 13 10 13 11 9 11 12 8 9 8 8 8 10 11 8 15 15 8 8 9 9 9 7 10 14 13 11 9 11 9 5 8 8 10 8 7 10 9 7 9 nan
nan 9 10 11 13 14 13 11 11 12 12 13 12 11 10 5 5 12 14 14 11 9 11 12 9 12 7 6 8 7 8 9 7 7 7 8 6 8 8 9 9 8 nan
nan 9 8 10 7 9 14 16 13 14 13 13 14 12 10 4 6 17 19 12 13 14 13 11 13 9 9 14 16 11 11 10 7 7 9 8 8 11 10 8 8 8 nan
nan 8 9 9 10 9 9 11 9 12 15 13 12 11 8 3 5 14 20 22 13 15 16 12 12 7 8 11 12 13 14 20 17 10 7 6 7 7 10 11 12 15 nan
nan 13 10 9 9 7 8 7 9 12 12 11 11 10 8 1 6 15 25 24 8 7 5 13 17 6 3 14 15 11 11 14 14 12 9 9 8 8 6 7 11 14 nan
nan 13 14 13 9 10 9 8 9 13 13 10 10 8 7 2 4 14 27 23 10 8 7 3 6 8 7 9 13 11 9 6 6 9 16 21 18 14 13 6 7 10 nan
nan 9 10 10 12 12 11 14 15 9 9 11 8 6 6 6 5 6 18 18 12 15 11 5 -2 2 9 10 11 8 6 7 11 13 11 12 15 17 16 9 12 8 nan
nan 13 12 11 10 10 10 12 11 9 9 8 8 7 6 4 4 10 9 6 15 16 9 7 1 4 6 7 5 7 9 15 14 15 13 10 8 7 7 10 11 10 nan
nan 12 12 12 11 13 10 8 8 8 8 8 8 7 8 6 4 4 7 8 14 10 9 9 7 8 11 13 8 9 15 14 14 10 11 12 11 12 9 9 7 11 nan
nan 13 11 9 9 14 15 10 10 11 10 7 11 10 8 6 8 6 9 9 8 11 11 12 11 16 17 15 16 13 15 11 12 11 10 9 10 12 12 11 9 11 nan
nan 7 11 10 6 6 6 13 18 13 12 18 17 12 18 15 6 7 8 7 8 9 13 13 9 14 14 13 13 11 9 11 11 11 11 11 10 10 11 10 11 10 nan
nan 9 13 11 10 7 5 1 5 9 12 16 14 21 18 12 9 8 7 8 6 11 15 9 11 10 9 10 10 11 8 9 10 10 9 10 11 10 10 11 12 11 nan
nan 14 9 12 14 10 9 7 4 3 3 7 7 9 10 11 11 8 6 11 14 17 16 8 10 10 9 10 10 10 9 10 10 11 11 10 11 12 10 9 9 10 nan
nan 9 11 14 12 10 10 10 8 9 7 6 5 5 7 4 8 9 8 15 22 13 11 11 10 9 10 10 10 9 10 10 10 10 11 10 10 10 10 10 9 10 nan
nan 11 11 10 10 11 15 11 10 10 11 10 8 11 9 7 8 15 19 15 13 13 11 10 9 10 10 10 10 10 10 10 10 10 10 10 10 10 10 10 9 9 nan
nan 8 14 12 10 10 11 10 12 12 11 8 8 16 13 10 14 12 13 14 11 10 11 10 10 10 10 10 10 9 10 9 10 11 10 10 10 9 9 9 10 10 nan
nan 8 10 12 10 11 10 10 12 11 10 11 9 3 7 15 16 11 11 10 10 10 10 10 10 10 10 9 9 10 10 10 10 10 10 9 9 10 10 10 10 10 nan
nan 9 11 11 10 11 11 11 11 10 12 11 10 6 9 14 13 10 10 11 9 9 11 9 8 11 10 9 10 11 10 10 10 10 9 9 10 10 10 9 9 10 nan
nan 10 9 9 9 10 10 11 10 11 11 10 11 10 9 11 10 11 9 10 9 9 9 9 9 10 9 9 9 9 10 12 10 8 9 10 10 9 10 11 10 9 nan
nan 10 9 10 10 11 9 10 9 9 12 12 9 7 11 14 11 9 9 11 10 10 9 9 7 9 8 10 10 9 13 11 9 9 9 10 10 8 9 11 10 11 nan
nan 12 11 10 12 9 9 12 11 10 9 9 10 11 11 9 11 10 11 9 9 10 9 9 10 10 10 7 8 17 15 6 4 11 11 9 10 13 13 10 9 12 nan
nan nan nan nan nan nan nan nan nan nan nan nan nan nan nan nan nan nan nan nan nan nan nan nan nan nan nan nan nan nan nan nan nan nan nan nan nan nan nan nan nan nan nan
CAPE
1055 950 833 661 586 781 599 708 974 948 1148 1403 1665 1708 1590 1898 1903 1978 2823 1968 1989 1772 1707 1667 1455 2207 1670 1327 1404 1068 677 705 874 1017 847 1239 3369 3012 2019 2408 1524 2606 966
1194 1295 1124 955 689 523 649 647 1079 1234 1390 1430 1794 1654 1367 1691 1785 1978 2284 1278 1416 1507 1465 1545 1533 1086 1933 2859 1715 3361 1789 2270 951 2851 1810 1483 2690 1739 1593 3441 1532 1071 1277
1370 1305 1831 991 827 715 572 664 911 1291 1312 1439 1415 1415 1559 1680 1399 1769 2020 1516 1578 1217 1134 1372 1453 1530 1865 1782 2083 1833 1188 1839 2114 1670 1052 752 1212 1473 1979 3008 3259 2902 889
758 1249 1823 1441 900 941 1971 778 910 1405 1375 1219 1663 1884 1652 1554 1629 1432 1588 1760 1738 1437 1475 1862 1849 1520 1705 1946 1878 2437 2359 2177 1656 1593 1334 1387 1596 2259 3063 1167 1152 762 893
412 884 836 1885 1530 1413 1386 1611 946 1018 1141 1210 1217 2236 1377 1338 714 1282 1519 1721 1963 1789 1421 1479 1585 1171 772 1047 1347 2475 2492 2138 1371 1317 1096 893 1113 1759 1422 1031 1365 1203 1810
364 515 951 1104 1189 1479 1413 1396 1416 1283 1257 1308 1337 1527 1463 1282 0 0 0 1815 1717 2067 2073 1564 1237 1619 1155 1117 924 828 973 2321 2270 1860 1533 1358 3015 2001 1745 1822 2121 1649 1669
291 280 272 350 240 386 587 1095 1161 1186 1269 1431 1262 1300 1120 310 0 0 0 1130 1703 1993 1861 1854 2011 794 1054 1211 548 539 528 489 324 1793 2370 2698 2586 2892 2502 2994 2727 2588 2014
674 365 256 144 161 227 177 124 234 548 927 942 824 277 95 0 0 0 0 1442 1823 1576 1544 1273 1105 510 0 0 33 775 965 1359 1610 1285 1804 1122 1086 404 266 994 1907 2181 2259
570 528 379 296 166 21 11 54 97 247 433 272 165 88 0 0 0 0 0 1174 582 373 84 27 39 0 0 0 14 65 91 107 0 0 0 0 0 0 0 10 442 1992 2178
2 44 50 76 1 1 0 0 0 3 2 16 0 0 0 0 0 0 0 328 427 97 0 0 0 0 0 0 0 0 0 0 0 0 9 0 9 25 0 49 612 508 547
0 0 0 0 0 5 5 29 6 1 0 0 0 0 0 0 0 0 0 0 0 23 13 0 0 0 0 0 0 0 0 0 0 0 0 4 33 92 129 85 583 71 15
0 5 0 0 0 2 28 3 2 1 0 0 0 0 0 0 0 0 0 0 0 0 0 0 0 0 0 0 0 0 0 0 0 0 0 0 0 0 0 0 299 21 1
6 16 14 3 7 20 13 15 2 0 0 0 0 0 0 0 0 0 0 0 0 0 0 0 0 0 0 0 0 0 0 0 0 0 0 0 0 0 20 9 1 2 4
0 4 1 0 4 9 19 4 5 18 17 13 7 0 0 0 0 0 0 0 0 0 0 0 0 0 0 0 0 0 0 0 0 0 0 0 0 0 0 0 0 0 0
5 0 0 0 0 0 0 0 0 0 0 0 1 0 0 0 0 0 0 0 0 0 0 0 0 0 0 0 0 0 0 0 0 0 0 0 0 0 0 0 0 0 0
0 0 0 0 0 0 0 0 0 0 0 0 0 0 0 0 0 0 0 0 0 0 0 0 0 0 0 0 0 0 0 0 0 0 0 0 0 0 0 0 0 0 0
0 0 0 0 0 0 0 0 0 0 0 0 0 0 0 0 0 0 0 0 0 0 0 0 0 0 0 0 0 0 0 0 0 0 0 0 0 0 0 0 0 0 0
0 0 0 0 0 0 0 0 0 0 0 0 0 0 0 0 0 0 0 0 0 0 0 0 0 0 0 0 0 0 0 0 0 0 0 0 0 0 0 0 0 0 0
0 0 0 0 0 0 0 0 0 0 0 0 0 0 0 0 0 0 0 0 0 0 0 0 0 0 0 0 0 0 0 0 0 0 0 0 0 0 0 0 0 0 0
0 0 0 0 0 0 0 0 0 0 0 0 0 0 0 0 0 0 0 0 0 0 0 0 0 0 0 0 0 0 0 0 0 0 0 0 0 0 0 0 0 0 0
0 0 0 0 0 0 0 0 0 0 0 0 0 0 0 0 0 0 0 0 0 0 0 0 0 0 0 0 0 0 0 0 0 0 0 0 0 0 0 0 0 0 0
0 0 0 0 0 0 0 0 0 0 0 0 0 0 0 0 0 0 0 0 0 0 0 0 0 0 0 0 0 0 0 0 0 0 0 0 0 0 0 0 0 0 1
0 0 0 0 0 0 0 0 0 0 0 0 0 0 0 0 0 0 0 0 0 0 0 0 0 0 0 0 0 0 0 0 0 0 0 1 2 2 3 5 7 8 8
0 0 0 0 0 0 0 0 0 0 0 0 0 0 0 0 0 0 0 0 0 0 0 0 0 0 0 0 0 0 0 0 0 0 3 5 7 9 7 6 9 6 13
0 2 0 0 0 0 0 0 0 1 0 0 1 0 0 0 0 0 0 0 0 0 0 0 0 0 0 0 0 0 0 0 0 0 2 5 6 6 6 5 6 6 5
28 2 1 0 0 0 3 4 3 8 12 8 5 8 3 1 0 0 1 2 2 3 4 3 1 0 0 0 0 0 0 0 0 0 0 2 4 5 6 7 6 9 6